DateTimeUTC,F1_A11,F1_S11,BsB_S11,BsG_S11,BsR_S11,BbsB_S11,BbsG_S11,BbsR_S11,BaB_A11,BaG_A11,BaR_A11,Tu_S11,T_S11,Uu_S11,U_S11,P_S11,T1_A11
2021-09-02T15:00:00Z,00000200,20000000,,,,,,,0000.01,-000.19,0000.28,18.9,25.8,02.6,01.7,0676.8,31.1
2021-09-02T15:01:00Z,00000200,20000000,,,,,,,0000.19,-000.10,-000.46,18.9,25.8,02.8,01.8,0676.8,31.1
2021-09-02T15:02:00Z,00000200,20000000,,,,,,,-000.09,-000.38,0000.05,18.9,25.8,02.9,01.9,0676.8,31.1
2021-09-02T15:03:00Z,00000200,60000000,,,,,,,0000.38,0001.20,0000.56,18.9,25.8,02.9,01.9,0676.8,31.1
2021-09-02T15:04:00Z,00000200,40000000,0003.18,0002.99,0001.71,0000.54,0000.56,0000.29,0000.99,0000.37,0000.62,19.1,25.7,02.8,01.9,0677.7,31.1
2021-09-02T15:05:00Z,00000200,00000000,0003.21,0003.16,0002.15,0001.09,0000.48,0000.48,0000.84,0000.87,0000.56,19.1,25.6,02.8,01.9,0677.7,31.1
2021-09-02T15:06:00Z,00000200,00000000,0003.90,0003.19,0002.18,0000.45,0000.07,0000.13,0001.36,0000.85,0000.53,19.1,25.6,02.9,01.9,0677.7,31.1
2021-09-02T15:07:00Z,00000200,00000000,0003.62,0003.39,0001.94,0001.28,0000.57,0000.26,0000.71,0001.16,0000.96,19.1,25.6,03.1,02.1,0677.7,31.1
2021-09-02T15:08:00Z,00000200,00000000,0004.22,0003.35,0002.16,0000.94,0000.67,0000.37,0000.89,0000.35,0000.91,19.1,25.6,03.2,02.1,0677.7,31.1
2021-09-02T15:09:00Z,00000200,00000000,0003.70,0003.20,0001.96,0000.65,0000.38,0000.40,0000.62,0001.06,0000.70,19.1,25.6,03.0,02.0,0677.7,31.1
2021-09-02T15:10:00Z,00000200,00000000,0003.55,0003.31,0002.32,0000.94,0000.04,0000.47,0001.06,0000.81,0000.15,19.1,25.6,03.0,02.1,0677.6,31.0
2021-09-02T15:11:00Z,00000200,00000000,0004.16,0003.26,0002.06,0000.40,0000.49,0000.31,0000.71,0000.65,0000.65,19.1,25.6,02.9,02.0,0677.6,31.1
2021-09-02T15:12:00Z,00000200,00000000,0004.12,0003.58,0002.13,0001.15,0000.31,0000.38,0000.93,0000.67,0000.74,19.1,25.6,03.0,02.0,0677.7,31.0
2021-09-02T15:13:00Z,00000200,00000000,0003.87,0003.29,0002.40,0001.11,-000.08,0000.63,0000.78,0001.21,0000.42,19.1,25.6,02.9,02.0,0677.7,31.0
2021-09-02T15:14:00Z,00000200,00000000,0002.90,0003.51,0002.48,0000.52,0000.04,0000.42,0000.90,0000.81,0001.04,19.1,25.6,03.0,02.0,0677.7,31.0
2021-09-02T15:15:00Z,00000200,00000000,0004.28,0003.09,0002.30,0000.63,0000.53,0000.46,0001.44,0000.96,0000.72,19.1,25.6,03.1,02.1,0677.8,31.0
2021-09-02T15:16:00Z,00000200,00000000,0003.55,0003.26,0002.34,0000.44,0000.49,0000.50,0000.74,0000.86,0000.55,19.1,25.6,03.1,02.1,0677.7,31.0
2021-09-02T15:17:00Z,00000200,00000000,0003.93,0003.79,0002.14,0000.61,0000.32,0000.36,0001.11,0000.78,0000.42,19.1,25.5,03.3,02.2,0677.6,31.1
2021-09-02T15:18:00Z,00000200,00000000,0003.82,0003.46,0001.98,0000.48,0000.26,0000.06,0000.73,0000.96,0000.82,19.1,25.5,03.2,02.1,0677.6,31.1
2021-09-02T15:19:00Z,00000200,00000000,0003.73,0002.92,0002.23,0001.02,0000.44,0000.30,0000.65,0000.73,0000.88,19.1,25.5,03.2,02.1,0677.6,31.1
2021-09-02T15:20:00Z,00000200,00000000,0004.00,0003.35,0002.24,0000.83,0000.39,0000.19,0001.26,0000.88,0000.63,19.1,25.5,03.2,02.1,0677.6,31.0
2021-09-02T15:21:00Z,00000200,00000000,0003.93,0003.59,0002.02,0000.82,0000.42,0000.29,0001.03,0000.98,0000.82,19.1,25.5,03.2,02.1,0677.6,31.0
2021-09-02T15:22:00Z,00000200,00000000,0004.16,0003.16,0002.23,0000.86,0000.38,0000.41,0000.87,0000.80,0000.52,19.1,25.5,03.2,02.2,0677.6,31.0
2021-09-02T15:23:00Z,00000200,00000000,0003.59,0003.36,0002.15,0000.62,0000.18,0000.31,0000.89,0000.92,0000.82,19.1,25.5,03.2,02.2,0677.6,31.1
2021-09-02T15:24:00Z,00000200,00000000,0003.38,0003.38,0002.21,0000.82,0000.39,0000.14,0001.05,0000.72,0000.46,19.1,25.5,03.2,02.1,0677.5,31.1
2021-09-02T15:25:00Z,00000200,00000000,0004.58,0003.22,0002.04,0000.47,0000.30,0000.32,0000.90,0000.89,0000.83,19.0,25.5,03.1,02.1,0677.5,31.0
2021-09-02T15:26:00Z,00000200,00000000,0004.22,0003.35,0002.00,0000.76,0000.52,0000.42,0000.90,0000.76,0000.71,19.1,25.5,03.1,02.1,0677.5,31.0
2021-09-02T15:27:00Z,00000200,00000000,0003.22,0003.34,0002.58,0000.69,0000.34,0000.36,0001.16,0001.05,0000.74,19.0,25.5,03.2,02.2,0677.6,31.0
2021-09-02T15:28:00Z,00000200,00000000,0004.27,0003.42,0002.17,0000.73,0000.36,0000.17,0000.80,0000.97,0000.59,19.0,25.5,03.3,02.2,0677.4,31.0
2021-09-02T15:29:00Z,00000200,00000000,0004.09,0003.00,0002.35,0000.67,0000.15,0000.09,0001.05,0001.06,0001.01,19.0,25.5,03.2,02.2,0677.5,31.0
2021-09-02T15:30:00Z,00000200,00000000,0004.39,0003.49,0002.06,0000.86,0000.28,0000.01,0000.95,0000.75,0000.25,19.0,25.5,03.3,02.2,0677.5,31.1
2021-09-02T15:31:00Z,00000200,00000000,0003.93,0003.48,0002.38,0000.77,0000.19,0000.03,0000.88,0000.67,0001.05,19.0,25.5,03.3,02.2,0677.5,31.0
2021-09-02T15:32:00Z,00000200,00000000,0004.27,0003.72,0002.68,0000.92,0000.68,0000.34,0000.85,0000.80,0000.77,19.0,25.5,03.1,02.1,0677.5,31.0
2021-09-02T15:33:00Z,00000200,00000000,0004.07,0003.11,0002.32,0000.45,0000.32,0000.39,0000.73,0000.96,0000.51,19.0,25.5,03.2,02.2,0677.5,31.0
2021-09-02T15:34:00Z,00000200,00000000,0003.47,0003.45,0002.63,0000.94,0000.49,0000.30,0001.24,0000.99,0000.79,19.0,25.5,03.2,02.2,0677.4,31.0
2021-09-02T15:35:00Z,00000200,00000000,0003.88,0003.59,0002.58,0000.79,0000.45,0000.67,0001.18,0000.87,0000.60,19.0,25.5,03.3,02.2,0677.3,31.0
2021-09-02T15:36:00Z,00000200,00000000,0004.82,0003.60,0002.14,0000.99,0000.68,0000.17,0000.69,0000.80,0000.41,19.1,25.5,03.3,02.2,0677.4,31.0
2021-09-02T15:37:00Z,00000200,00000000,0004.00,0003.82,0002.37,0000.45,0000.15,0000.65,0001.27,0001.11,0000.98,19.0,25.5,03.4,02.3,0677.4,31.0
2021-09-02T15:38:00Z,00000200,00000000,0003.54,0003.27,0002.51,0000.60,0000.32,0000.33,0000.98,0000.94,0000.96,19.0,25.5,03.4,02.3,0677.3,31.0
2021-09-02T15:39:00Z,00000200,00000000,0004.35,0003.49,0002.11,0000.84,0000.16,0000.26,0000.66,0000.52,0000.33,19.0,25.5,03.3,02.2,0677.3,31.0
2021-09-02T15:40:00Z,00000200,00000000,0004.63,0003.59,0002.31,0001.14,0000.52,0000.29,0000.80,0000.72,0000.79,19.0,25.5,03.3,02.2,0677.3,31.0
2021-09-02T15:41:00Z,00000200,00000000,0004.61,0003.54,0002.49,0000.95,0000.63,0000.70,0001.62,0001.22,0001.00,19.0,25.5,03.3,02.2,0677.4,31.0
2021-09-02T15:42:00Z,00000200,00000000,0003.39,0003.75,0002.03,0001.13,0000.70,0000.28,0000.87,0001.38,0000.99,19.0,25.4,03.3,02.2,0677.3,31.1
2021-09-02T15:43:00Z,00000200,00000000,0004.20,0003.45,0002.78,0001.36,0000.20,0000.43,0001.15,0001.05,0000.66,19.0,25.4,03.3,02.2,0677.3,31.0
2021-09-02T15:44:00Z,00000200,00000000,0004.18,0003.23,0002.35,0000.10,0000.56,0000.04,0000.73,0000.63,0000.68,19.0,25.5,03.4,02.3,0677.3,31.0
2021-09-02T15:45:00Z,00000200,00000000,0004.03,0003.25,0002.31,0000.98,0000.37,0000.47,0001.03,0001.20,0000.67,19.0,25.4,03.3,02.2,0677.3,31.0
2021-09-02T15:46:00Z,00000200,00000000,0004.18,0003.74,0002.26,0001.14,0000.40,0000.28,0001.17,0000.54,0000.60,19.0,25.4,03.4,02.3,0677.3,31.0
2021-09-02T15:47:00Z,00000200,00000000,0004.17,0003.43,0002.35,0000.33,0000.45,0000.32,0001.13,0001.39,0000.87,19.0,25.4,03.4,02.3,0677.4,31.1
2021-09-02T15:48:00Z,00000200,00000000,0003.38,0003.85,0002.29,0000.77,0000.12,0000.41,0001.01,0000.69,0000.56,19.0,25.4,03.4,02.3,0677.3,31.0
2021-09-02T15:49:00Z,00000200,00000000,0003.98,0003.84,0001.96,0000.16,0000.72,0000.17,0001.10,0000.78,0001.07,19.0,25.4,03.6,02.4,0677.3,31.0
2021-09-02T15:50:00Z,00000200,00000000,0004.25,0003.45,0002.43,0000.47,0000.12,0000.23,0000.51,0000.97,0000.71,19.0,25.4,03.5,02.3,0677.3,31.0
2021-09-02T15:51:00Z,00000200,00000000,0004.58,0003.38,0002.09,0000.40,0000.65,0000.07,0000.92,0000.76,0000.53,19.0,25.4,03.5,02.4,0677.2,31.0
2021-09-02T15:52:00Z,00000200,00000000,0004.80,0003.45,0002.30,0000.45,0000.85,0000.46,0001.29,0001.09,0000.56,19.0,25.4,03.4,02.3,0677.2,31.0
2021-09-02T15:53:00Z,00000200,00000000,0004.72,0003.19,0001.95,0000.54,0000.36,0000.48,0001.12,0001.06,0000.76,19.0,25.4,03.4,02.3,0677.3,31.0
2021-09-02T15:54:00Z,00000200,00000000,0004.46,0003.50,0002.66,0001.70,-000.05,0000.25,0001.00,0000.94,0000.74,19.0,25.4,03.4,02.3,0677.3,31.0
2021-09-02T15:55:00Z,00000200,00000000,0004.37,0003.55,0002.70,0001.15,0000.36,0000.77,0000.91,0000.90,0001.11,19.0,25.4,03.4,02.3,0677.2,31.1
2021-09-02T15:56:00Z,00000200,00000000,0003.87,0003.40,0002.71,0000.42,0000.24,0000.45,0000.77,0001.03,0000.54,19.0,25.4,03.4,02.3,0677.2,31.0
2021-09-02T15:57:00Z,00000200,40000000,,,,,,,0000.41,-000.19,0000.31,19.0,25.4,02.8,01.9,0677.3,31.0
2021-09-02T15:58:00Z,00000200,60000000,,,,,,,0000.20,0000.47,0000.07,18.8,25.5,03.3,02.2,0676.3,31.0
2021-09-02T15:59:00Z,00000200,20000000,,,,,,,0000.08,0000.23,-000.28,18.8,25.6,03.3,02.2,0676.3,31.0
